Weather Roundup
Issued by NWS

Home | Current Version | Previous Version | Text Only | Print | Product List | Glossary On
Versions: 1 2 3 4 5 6 7 8 9 10 11 12 13 14 15 16 17 18 19 20 21 22 23 24 25 26 27 28 29 30 31 32 33 34 35 36 37 38 39 40 41 42 43 44 45 46 47 48 49 50
000
NZUS93 KARX 020959
HRRWXR

CURRENT HOURLY OBSERVATIONS ACROSS
MUCH OF THE UPPER MISSISSIPPI VALLEY
NATIONAL WEATHER SERVICE LA CROSSE WI
500 AM CDT TUE JUN 02 2015


...SOUTHEAST MINNESOTA...


CITY           SKY/WX    TMP DP  RH WIND       PRES   REMARKS
ROCHESTER      CLEAR     49  42  77 S9        30.14S
ROCHESTER/MAYO FAIR      51  42  72 E6        30.13F
WINONA         PTCLDY    48  41  76 CALM      30.15S
AUSTIN         CLEAR     52  43  71 SE6       30.11F
ALBERT LEA     PTCLDY    54  43  66 S8        30.09F
DODGE CENTER   CLEAR     52  43  71 SE7       30.11F
PRESTON        PTCLDY    49  40  70 SE5       30.16R
OWATONNA       CLEAR     55  39  54 SE10      30.10S
FARIBAULT      CLEAR     55  43  62 SE9       30.09F
$$

...ELSEWHERE IN MINNESOTA...


CITY           SKY/WX    TMP DP  RH WIND       PRES   REMARKS
MINNEAPOLIS    MOCLDY    54  41  61 SE8       30.08F
INTNL FALLS    CLOUDY    55  38  52 S3        29.96F
DULUTH         MOCLDY    44  33  65 SE7       30.09F
RED WING       PTCLDY    55  39  54 SE7       30.12S
REDWOOD FALLS  MOCLDY    56  44  64 S10       30.01F
MANKATO        PTCLDY    55  45  67 SE10      30.06S
WORTHINGTON    MOCLDY    55  46  71 S12       30.03F
FAIRMONT       PTCLDY    55  46  71 S12       30.05F
$$

...SOUTHWEST WISCONSIN...


CITY           SKY/WX    TMP DP  RH WIND       PRES   REMARKS
LA CROSSE      MOCLDY    51  38  60 SE8       30.16R
PRAIRIE DU CHI PTCLDY    49  38  66 E3        30.17S
BOSCOBEL       PTCLDY    40  38  93 CALM      30.19S
LONE ROCK      NOT AVBL
PLATTEVILLE    CLEAR     45  40  81 E7        30.18S
FORT MC COY    MOCLDY    36  35  96 CALM      30.18S
CAMP DOUGLAS   FOG       35  35 100 E3        30.18S VSB 1/2
VIROQUA        FAIR      46  36  68 SE6       30.17S
WIS DELLS      CLEAR     39  35  87 CALM      30.18F
$$

...ELSEWHERE IN WISCONSIN...


CITY           SKY/WX    TMP DP  RH WIND       PRES   REMARKS
MILWAUKEE      PTCLDY    41  34  76 NW3       30.20S
MADISON        CLEAR     41  35  79 CALM      30.19S
GREEN BAY      CLEAR     41  39  93 W3        30.21R
EAU CLAIRE     NOT AVBL
BLACK RVR FLS  FAIR      36  36 100 CALM      30.17S
MEDFORD        CLEAR     44  38  79 SE3       30.19R
WAUSAU         PTCLDY    41  38  89 E5        30.19R
WIS RAPIDS     PTCLDY    40  35  83 SE3       30.21R
MARSHFIELD     CLEAR     43  36  76 CALM      30.19R
RICE LAKE      PTCLDY    50  39  66 SE8       30.15S
$$

...NORTHEAST IOWA...


CITY           SKY/WX    TMP DP  RH WIND       PRES   REMARKS
DECORAH        CLOUDY    50  41  71 SE8       30.15R
MASON CITY     PTCLDY    50  44  80 SE6       30.12S
CHARLES CITY   CLEAR     52  45  76 SE10      30.13S
OELWEIN        PTCLDY    52  45  76 SE10      30.15F
$$

...ELSEWHERE IN IOWA...


CITY           SKY/WX    TMP DP  RH WIND       PRES   REMARKS
DES MOINES     PTCLDY    57  51  80 SE7       30.11R
IOWA CITY      CLOUDY    56  51  84 CALM      30.16F
FORT DODGE     MOCLDY    55  50  82 S6        30.10S
$$

...NORTHERN ILLINOIS...


CITY           SKY/WX    TMP DP  RH WIND       PRES   REMARKS
CHICAGO-OHARE  PTCLDY    42  38  85 CALM      30.18S
CHICAGO-MIDWAY PTCLDY    46  40  79 CALM      30.18S
MOLINE         PTCLDY    50  46  86 CALM      30.18R
ROCKFORD       PTCLDY    44  38  79 CALM      30.20F
PEORIA         PTCLDY    50  43  77 NE5       30.17S
$$

NOTE: "FAIR" INDICATES FEW OR NO CLOUDS BELOW 12,000 FEET WITH NO
SIGNIFICANT WEATHER AND/OR OBSTRUCTIONS TO VISIBILITY. WIND
SPEEDS ARE IN MILES-PER-HOUR.



USA.gov is the U.S. government's official web portal to all federal, state and local government web resources and services.